Location: Diebersbach
(48.5163°N, 8.0558°E)
Time: 21:30:17
(UTC+00:00)

FENGYUN 1C DEB - Pass Details

Date: 29 January 2022
Orbit: 690 x 984 km, 98.6° (Epoch: 20 May)

Event Time Altitude Azimuth Distance (km) Brightness Sun altitude
Rises 17:22:37 0° 162° (SSE) 3,626 ? -10.3°
Reaches altitude 10° 17:25:02 10° 162° (SSE) 2,705 ? -10.7°
Maximum altitude 17:31:12 87° 74° (ENE) 993 ? -11.7°
Drops below altitude 10° 17:37:26 10° 346° (NNW) 2,741 ? -12.7°
Sets 17:39:54 0° 346° (NNW) 3,677 ? -13.1°
